World > North America > United States > New York > Burke

Burke, NY Hourly Weather Conditions

Feedback E-mail the Weather

Quick WX

Burke, NY Weather Maps

°F °C°F °C
Burke Weather Map
UTC Time: 2/8/2023, 16:15
Your Time:

Burke, NY Regional Weather

Expires:202302081700;;012483
ASUS41 KBTV 081610
RWRBTV
VERMONT REGIONAL WEATHER ROUNDUP
NATIONAL WEATHER SERVICE BURLINGTON VT
1100 AM EST WED FEB 08 2023

NOTE: "FAIR" INDICATES FEW OR NO CLOUDS BELOW 12,000 FEET WITH NO 
SIGNIFICANT WEATHER AND/OR OBSTRUCTIONS TO VISIBILITY.

* THESE REPORTS ARE NOT UNDER NWS QUALITY CONTROL AND/OR DO NOT
  REPORT WEATHER SUCH AS PRECIPITATION AND FOG.


NYZ007-026>031-035-052-083-087-081700-
_____NORTHERN NEW YORK_
  
CITY           SKY/WX    TMP DP  RH WIND       PRES   REMARKS
PLATTSBURGH    CLOUDY    40  26  57 CALM      30.10F                  
SARANAC LAKE   CLOUDY    32  25  75 VRB6      30.07S WCI  26          
MASSENA        CLOUDY    38  27  64 W13       30.14S WCI  30          
OGDENSBURG*    CLOUDY    39  28  65 SW8       30.12S                  
WATERTOWN      MOSUNNY   38  32  79 W13G22    30.19R WCI  30          
FT DRUM        PTSUNNY   38  23  54 W12G20    30.14S WCI  31          
ALBANY         PTSUNNY   41  27  57 W13G22    30.20R                  
GLENS FALLS    CLOUDY    39  25  57 SW7       30.16R                  

$$

SKY/WX - Weather  TMP - Temperature  DP - Dew Point  RH - Humidity
WIND - Wind Direction/Speed PRES - Barometric Pressure VSB - Visibility
WCI - Wind Chill Index E13G22 Wind - East Wind 13 mph/Gusts of 22 mph

Trending Headlines

Trending Entertainment Headlines

Burke Radar Loop

Use the map search tool if you want to place a location marker on the radar map...

Burke Quick Facts

National Two Day Weather Forecast


E-mail the Burke Weather Forecast

Voice your opinion or tell us about page issues...